TimeEST,TemperatureF,Dew PointF,Humidity,Sea Level PressureIn,VisibilityMPH,Wind Direction,Wind SpeedMPH,Gust SpeedMPH,PrecipitationIn,Events,Conditions,WindDirDegrees,DateUTC
12:53 AM,35.1,30.0,82,30.11,10.0,Calm,Calm,-,N/A,,Clear,0,2013-02-21 05:53:00
1:53 AM,37.9,30.0,73,30.13,10.0,NNE,8.1,-,N/A,,Clear,20,2013-02-21 06:53:00
2:53 AM,37.9,25.0,60,30.12,10.0,NE,9.2,-,N/A,,Clear,40,2013-02-21 07:53:00
3:53 AM,36.0,23.0,59,30.14,10.0,NE,6.9,-,N/A,,Clear,40,2013-02-21 08:53:00
4:53 AM,36.0,21.0,55,30.14,10.0,NE,8.1,-,N/A,,Clear,40,2013-02-21 09:53:00
5:53 AM,35.1,21.0,57,30.17,10.0,NE,5.8,-,N/A,,Clear,40,2013-02-21 10:53:00
6:53 AM,33.1,19.9,59,30.18,10.0,NNE,4.6,-,N/A,,Clear,30,2013-02-21 11:53:00
7:53 AM,37.0,21.0,52,30.21,10.0,NE,4.6,-,N/A,,Clear,40,2013-02-21 12:53:00
8:53 AM,41.0,19.0,41,30.22,10.0,ENE,11.5,-,N/A,,Clear,60,2013-02-21 13:53:00
9:53 AM,45.0,19.0,36,30.22,10.0,NE,10.4,-,N/A,,Clear,50,2013-02-21 14:53:00
10:53 AM,48.0,19.0,32,30.22,10.0,ENE,5.8,-,N/A,,Clear,70,2013-02-21 15:53:00
11:53 AM,52.0,19.9,28,30.20,10.0,North,3.5,-,N/A,,Clear,10,2013-02-21 16:53:00
12:53 PM,55.0,21.0,27,30.17,10.0,North,3.5,-,N/A,,Clear,350,2013-02-21 17:53:00
1:53 PM,57.0,21.0,25,30.14,10.0,Calm,Calm,-,N/A,,Clear,0,2013-02-21 18:53:00
2:53 PM,60.1,21.0,22,30.10,10.0,Variable,4.6,-,N/A,,Clear,0,2013-02-21 19:53:00
3:53 PM,60.1,21.0,22,30.11,10.0,Calm,Calm,-,N/A,,Clear,0,2013-02-21 20:53:00
4:53 PM,59.0,21.0,23,30.11,10.0,Calm,Calm,-,N/A,,Clear,0,2013-02-21 21:53:00
5:53 PM,57.0,23.0,27,30.12,10.0,Calm,Calm,-,N/A,,Clear,0,2013-02-21 22:53:00
6:53 PM,50.0,30.9,48,30.14,10.0,NE,4.6,-,N/A,,Clear,40,2013-02-21 23:53:00
7:53 PM,48.9,28.9,46,30.16,10.0,ENE,5.8,-,N/A,,Clear,60,2013-02-22 00:53:00
8:53 PM,46.9,28.0,48,30.16,10.0,ENE,3.5,-,N/A,,Clear,60,2013-02-22 01:53:00
9:53 PM,48.0,28.9,48,30.17,10.0,Calm,Calm,-,N/A,,Clear,0,2013-02-22 02:53:00
10:53 PM,48.0,30.0,50,30.19,10.0,ENE,6.9,-,N/A,,Clear,70,2013-02-22 03:53:00
11:53 PM,46.9,30.0,52,30.20,10.0,East,5.8,-,N/A,,Clear,90,2013-02-22 04:53:00